This is the latest recevied weather packets stored in our database for station/object N9EA. If no packets are shown the sender has not sent any weather packets the latest 10 day(s).
| Time | Temp. | Humidity | Pressure | Rain* | Wind** | Luminosity | Snow |
|---|---|---|---|---|---|---|---|
| 1777570839 | 13.33° C | 60% | 1015.5 hPa | 0 mm | - | 257 W/m² | - |
| 1777570535 | 13.33° C | 60% | 1015.5 hPa | 0 mm | - | 290 W/m² | - |
| 1777570232 | 13.33° C | 59% | 1015.5 hPa | 0 mm | - | 306 W/m² | - |
| 1777569928 | 13.33° C | 58% | 1015.6 hPa | 0 mm | - | 290 W/m² | - |
| 1777569624 | 13.33° C | 57% | 1015.6 hPa | 0 mm | - | 267 W/m² | - |
| 1777569321 | 13.33° C | 56% | 1015.7 hPa | 0 mm | - | 260 W/m² | - |
| 1777569017 | 13.33° C | 55% | 1015.8 hPa | 0 mm | - | 252 W/m² | - |
| 1777568714 | 13.33° C | 55% | 1015.7 hPa | 0 mm | - | 289 W/m² | - |
| 1777568412 | 13.89° C | 55% | 1015.7 hPa | 0 mm | - | 294 W/m² | - |
| 1777568109 | 13.89° C | 54% | 1015.5 hPa | 0 mm | - | 286 W/m² | - |
| 1777567805 | 14.44° C | 54% | 1015.6 hPa | 0 mm | - | 270 W/m² | - |
| 1777567501 | 14.44° C | 53% | 1015.8 hPa | 0 mm | - | 294 W/m² | - |
| 1777567199 | 13.89° C | 55% | 1015.8 hPa | 0 mm | - | 343 W/m² | - |
| 1777566896 | 14.44° C | 53% | 1016 hPa | 0 mm | - | 340 W/m² | - |
| 1777566594 | 15° C | 52% | 1015.8 hPa | 0 mm | - | 326 W/m² | - |
| 1777566292 | 15° C | 50% | 1015.9 hPa | 0 mm | - | 414 W/m² | - |
| 1777565989 | 15° C | 50% | 1015.8 hPa | 0 mm | - | 475 W/m² | - |
| 1777565689 | 15.56° C | 48% | 1015.7 hPa | 0 mm | - | 631 W/m² | - |
| 1777565386 | 15° C | 48% | 1015.6 hPa | 0 mm | - | 542 W/m² | - |
| 1777565082 | 14.44° C | 49% | 1015.7 hPa | 0 mm | - | 387 W/m² | - |
| 1777564778 | 14.44° C | 50% | 1015.6 hPa | 0 mm | - | 517 W/m² | - |
| 1777564473 | 13.89° C | 50% | 1015.9 hPa | 0 mm | - | 250 W/m² | - |
| 1777564169 | 14.44° C | 50% | 1015.8 hPa | 0 mm | - | 240 W/m² | - |
| 1777563865 | 14.44° C | 50% | 1015.5 hPa | 0 mm | - | 313 W/m² | - |
| 1777563562 | 15° C | 49% | 1015.7 hPa | 0 mm | - | 278 W/m² | - |
* Rain latest hour (hover to see other rain measurements)
** Current wind speed in m/s (hover to see current wind gust speed)